User: anonymous   Login
Location: Newsoms
(36.6240°N, 77.1250°W)
Time: 23:08:04
(UTC-04:00)
Language:

BREEZE-M DEB (TANK) - Orbit

View from above orbital plane
View from above orbital plane
View from above satellite
View from above satellite

Ground track
Ground track

The orbit data is extracted from the following two-line orbital elements,

1 29649U 06056B   15087.50940916  .00004051  00000-0  11938-2 0  9996
2 29649 049.4914 105.1947 5382824 016.5936 110.6919 04.96192527147321
Epoch (UTC): 28 March 2015 12:13:32
Eccentricity: 0.5382824
inclination: 49.4914°
perigee height: 326 km
apogee height: 15957 km
right ascension of ascending node: 105.1947°
argument of perigee: 16.5936°
revolutions per day: 4.96192527
mean anomaly at epoch: 110.6919°
orbit number at epoch: 14732

The dashed part of the orbit path shows where the satellite is in the earth's shadow,  

DLR